Regional Weather Roundup
Issued by NWS

Home | Current Version | Previous Version | Graphics & Text | Print | Product List | Glossary On
Versions: 1 2 3 4 5 6 7 8 9 10 11 12 13 14 15 16 17 18 19 20 21 22 23 24 25 26 27 28 29 30 31 32 33 34 35 36 37 38 39 40 41 42 43 44 45 46 47 48 49 50
000
ASUS43 KMKX 270100
RWRWI

WISCONSIN REGIONAL WEATHER ROUNDUP
NATIONAL WEATHER SERVICE MILWAUKEE/SULLIVAN WI
800 PM CDT FRI AUG 26 2016

NOTE: "FAIR" INDICATES FEW OR NO CLOUDS BELOW 12,000 FEET WITH NO
SIGNIFICANT WEATHER AND/OR OBSTRUCTIONS TO VISIBILITY.

WIZ001-002-006>008-014>016-023>028-270200-
NORTHWEST WISCONSIN

CITY           SKY/WX    TMP DP  RH WIND       PRES   REMARKS
SUPERIOR ARPT  CLOUDY    66  56  69 S3        30.10S
ASHLAND        MOCLDY    62  54  74 S3        30.13F
HAYWARD        PTCLDY    62  57  83 CALM      30.14F
SIREN          PTCLDY    65  57  74 CALM      30.13S
CUMBERLAND     PTCLDY    63  55  77 SE3       30.15R
RICE LAKE      PTCLDY    64  57  79 S3        30.16S
CHETEK         NOT AVBL
LADYSMITH      PTCLDY    64  56  75 CALM      30.17S
EAU CLAIRE     NOT AVBL
MENOMONIE      CLOUDY    66  58  73 CALM      30.14S
NEW RICHMOND   CLOUDY    64  55  70 S3        30.14S
OSCEOLA        CLOUDY    66  59  78 S3        30.16S
$$

WIZ003>005-009-010-017-018-270200-
NORTH CENTRAL WISCONSIN

CITY           SKY/WX    TMP DP  RH WIND       PRES   REMARKS
MANITOWISH WTR NOT AVBL
ARBOR VITAE    CLOUDY    62  56  82 CALM      30.16S
WOODRUFF       CLOUDY    62  56  82 CALM      30.16S
RHINELANDER    CLOUDY    59  57  93 CALM      30.16F
EAGLE RIVER    CLOUDY    59  53  81 CALM      30.16S
LAND O LAKES   PTCLDY    57  52  83 CALM      30.18S
PHILLIPS       PTCLDY    58  56  92 CALM      30.15S
TOMAHAWK       CLOUDY    59  56  87 CALM      30.17S FOG
MEDFORD        PTCLDY    59  59 100 CALM      30.15F
MERRILL        CLOUDY    62  59  88 CALM      30.16F
$$

WIZ029-030-035-036-043>047-270200-
CENTRAL WISCONSIN

CITY           SKY/WX    TMP DP  RH WIND       PRES   REMARKS
WAUSAU         MOCLDY    65  55  70 SW3       30.14S
MOSINEE        CLEAR     63  57  82 CALM      30.16F
MARSHFIELD     PTCLDY    65  57  75 CALM      30.15S
STEVENS POINT  MOCLDY    65  55  71 CALM      30.16S
WAUPACA        CLOUDY    67  57  72 W3        30.16S
WAUTOMA        PTCLDY    64  62  93 CALM      30.15S
WISC RAPIDS    CLOUDY    64  60  87 CALM      30.16F
CAMP DOUGLAS   NOT AVBL
$$

WIZ011>013-019>022-031-037>040-048>050-270200-
NORTHEAST WISCONSIN

CITY           SKY/WX    TMP DP  RH WIND       PRES   REMARKS
ANTIGO         CLOUDY    63  54  73 CALM      30.17S
SHAWANO        CLOUDY    69  56  64 CALM      30.15R
OCONTO         NOT AVBL
STURGEON BAY   CLOUDY    65  59  81 S5        30.15R
GREEN BAY      CLOUDY    64  63  96 CALM      30.13F
MANITOWOC      NOT AVBL
APPLETON       MOCLDY    66  54  63 W3        30.14S
CLINTONVILLE   PTCLDY    64  55  72 CALM      30.14F
OSHKOSH        CLOUDY    67  58  72 CALM      30.15R
$$

WIZ032>034-041-042-053>061-270200-
SOUTHWEST WISCONSIN

CITY           SKY/WX    TMP DP  RH WIND       PRES   REMARKS
LA CROSSE      CLOUDY    70  61  73 CALM      30.12F
SPARTA         PTCLDY    66  63  88 CALM      30.15S
VIROQUA        CLOUDY    65  61  88 E3        30.15S
BOSCOBEL       LGT RAIN  66  63  90 CALM      30.15R
PRAIRIE DU CHI LGT RAIN  66  62  87 CALM      30.13S
PLATTEVILLE    CLOUDY    67  64  89 NE3       30.14S
$$

WIZ056-057-062-063-064-067-068-270200-
SOUTH CENTRAL WISCONSIN

CITY           SKY/WX    TMP DP  RH WIND       PRES   REMARKS
REEDSBURG      NOT AVBL
BARABOO/DELLS  CLOUDY    65  60  82 CALM      30.14S
LONE ROCK      NOT AVBL
MINERAL POINT  CLOUDY    68  63  83 NE3       30.15R
MADISON        CLOUDY    67  60  78 N3        30.14S
MIDDLETON      CLOUDY    67  62  83 NE3       30.14F
WATERTOWN      PTCLDY    69  61  74 N5        30.13S
MONROE         MOCLDY    68  61  77 N5        30.14R
JANESVILLE     MOCLDY    73  59  60 NE6       30.13R
$$

WIZ051-052-058>065-066-070>072-270200-
SOUTHEAST WISCONSIN

CITY           SKY/WX    TMP DP  RH WIND       PRES   REMARKS
MILWAUKEE      CLOUDY    70  58  65 E6        30.15R
WAUKESHA       CLEAR     66  55  68 SE6       30.16R
MILWAUKEE/TIMM CLEAR     70  54  56 SE5       30.15R
RACINE         CLOUDY    70  58  65 E6        30.16R
BURLINGTON     CLOUDY    67  59  73 E5        30.14R
KENOSHA        CLOUDY    68  60  75 E6        30.15R
FOND DU LAC    PTCLDY    65  58  78 CALM      30.15R
SHEBOYGAN      PTCLDY    66  56  70 S3        30.15R
WEST BEND      PTCLDY    64  57  77 CALM      30.15R
JUNEAU         PTCLDY    65  60  84 CALM      30.16R
$$

LSZ147-162-270200-
LAKE SUPERIOR

STATION/POSITION TIME  TEMP    WIND        PRES    WAVE
                       AIR SEA DIR/SP/G            HT/PER
                 (UTC) (F)     (DEG/KT/KT) (MB)    (FT/S)
W MID LAKE BUOY  2350   65 68  180/  6/  8 1020.1F   1
DEVILS ISLAND    0000   65     150/  7/  9 1020.1F
PORT WING        0000   71     160/  5/  8 1019.6F
SAXON HARBOR     0000   67     200/  2/  3 1020.0F
$$

LMZ867-665-643>646-270200-
LAKE MICHIGAN

STATION/POSITION TIME  TEMP    WIND        PRES    WAVE
                       AIR SEA DIR/SP/G            HT/PER
                 (UTC) (F)     (DEG/KT/KT) (MB)    (FT/S)
CHAMBERS ISLAND  0000   69     180/  2/  4 1020.0S
S GREEN BAY BUOY 0030   71 72  210/ 12/ 14 1019.7F
N MID LAKE BUOY  2350   69 71  220/ 10/ 10 1019.9R   1
NORTHPORT PIER   0000   69     180/  2/  4 1020.0S
SISTER BAY       0037   67     140/  5/  6   N/A
ALGOMA LAKESHORE 0045          210/  6/  8   N/A
KEWAUNEE LAKESHO 0000   61     170/  8/ 10 1020.2F
SHEBOYGAN LAKESH 0000   66     170/  4/  4 1020.1F
PORT WASHINGTON  0040   65      30/  1/  2 1021.0F
ATWATER BUOY     0000   66     190/  2/  2   N/A
MILWAUKEE LAKESH 0010   66      60/  2/  3   N/A
S MID LAKE BUOY  2350   71 75   50/  6/  8 1019.9F   1
KENOSHA   LAKESH 0000   71      90/  7/  7 1019.6F
$$

TC  - TEMPERATURE IN CELSIUS
VSB - VISIBILITY IN STATUTE MILES
WCI - WIND CHILL INDEX
HX  - HEAT INDEX





USA.gov is the U.S. government's official web portal to all federal, state and local government web resources and services.